Weather History for KLYH - September, 2012

Change the Weather History Date:

Saturday, September 15, 2012

  Actual Average Record
Temperature  
Mean Temperature 65 °F 67 °F  
Max Temperature 76 °F 79 °F 95 °F (1930)
Min Temperature 54 °F 56 °F 42 °F (1964)
Degree Days  
Heating Degree Days 0 1  
Month to date heating degree days 4 8  
Since 1 July heating degree days 4 11  
Cooling Degree Days 0 4  
Month to date cooling degree days 91 82  
Year to date cooling degree days 1210 980  
Growing Degree Days 15 (Base 50)    
Moisture  
Dew Point 54 °F    
Average Humidity 63    
Maximum Humidity 87    
Minimum Humidity 28    
Precipitation  
Precipitation 0.00 in 0.14 in 3.29 in (1989)
Month to date precipitation 1.14 1.98  
Year to date precipitation 23.69 29.91  
Snow  
Snow 0.00 in - - ()
Month to date snowfall 0.0  
Since 1 July snowfall 0.0  
Since 1 September snowfall 0.0  
Snow Depth 0.00 in    
Sea Level Pressure  
Sea Level Pressure 30.18 in    
Wind  
Wind Speed 3 mph (ENE)    
Max Wind Speed 17 mph    
Max Gust Speed 21 mph    
Visibility 10 miles    
Events      
T = Trace of Precipitation, MM = Missing Value Source: NWS Daily Summary

Daily Weather History Graph

Daily Weather History Graph

Search for Another Location

Airport or City:

Trip Planner

Search our weather history database for the weather conditions in past years. The results will help you decide how hot, cold, wet, or windy it might be!

Date:

Astronomy

Sep. 15, 2012 Rise Set
Actual Time 6:59 AM EDT 7:23 PM EDT
Civil Twilight 6:33 AM EDT 7:49 PM EDT
Nautical Twilight 6:02 AM EDT 8:20 PM EDT
Astronomical Twilight 5:30 AM EDT 8:51 PM EDT
Moon 6:27 AM EDT (9/15) 6:54 PM EDT (9/15)
Length of Visible Light 13h 16m
Length of Day
12h 24m
Waning Crescent, 0% of the Moon is Illuminated
Sep 15
Waning Crescent
Sep 15
New
Sep 22
First Quarter
Sep 29
Full
Oct 8
Last Quarter

Hourly Weather History & Observations

Time (EDT) Temp. Dew Point Humidity Pressure Visibility Wind Dir Wind Speed Gust Speed Precip Events Conditions
12:54 AM 57.9 °F - N/A% 30.16 in 10.0 mi Calm Calm - N/A   Clear
1:54 AM 57.0 °F - N/A% 30.16 in 10.0 mi Calm Calm - N/A   Clear
2:54 AM 55.0 °F - N/A% 30.15 in 10.0 mi Calm Calm - N/A   Clear
3:54 AM 55.9 °F - N/A% 30.14 in 10.0 mi Calm Calm - N/A   Clear
4:54 AM 55.9 °F - N/A% 30.15 in 10.0 mi NNW 3.5 mph - N/A   Clear
5:54 AM 55.0 °F - N/A% 30.16 in 10.0 mi Calm Calm - N/A   Partly Cloudy
6:54 AM 57.9 °F 54.0 °F 87% 30.19 in 10.0 mi Calm Calm - N/A   Overcast
7:54 AM 63.0 °F 55.9 °F 78% 30.21 in 10.0 mi Calm Calm - N/A   Clear
8:54 AM 66.9 °F 57.9 °F 73% 30.22 in 10.0 mi NNE 6.9 mph - N/A   Scattered Clouds
9:54 AM 69.1 °F 55.0 °F 61% 30.24 in 10.0 mi NNE 12.7 mph - N/A   Scattered Clouds
10:54 AM 70.0 °F 53.1 °F 55% 30.25 in 10.0 mi NE 12.7 mph - N/A   Clear
11:54 AM 71.1 °F 55.0 °F 57% 30.25 in 10.0 mi NE 9.2 mph - N/A   Partly Cloudy
12:54 PM 70.0 °F 54.0 °F 57% 30.22 in 10.0 mi ENE 5.8 mph - N/A   Overcast
1:54 PM 72.0 °F 54.0 °F 53% 30.21 in 10.0 mi Calm Calm - N/A   Overcast
2:54 PM 75.0 °F 55.0 °F 50% 30.18 in 10.0 mi Variable 3.5 mph - N/A   Clear
3:54 PM 73.0 °F 55.0 °F 53% 30.15 in 10.0 mi SE 5.8 mph - N/A   Clear
4:54 PM 73.9 °F 54.0 °F 50% 30.15 in 10.0 mi ESE 5.8 mph - N/A   Clear
5:54 PM 73.0 °F 54.0 °F 51% 30.14 in 10.0 mi ESE 3.5 mph - N/A   Clear
6:54 PM 70.0 °F 54.0 °F 57% 30.15 in 10.0 mi ESE 3.5 mph - N/A   Clear
7:54 PM 63.0 °F 55.0 °F 75% 30.16 in 10.0 mi Calm Calm - N/A   Clear
8:54 PM 61.0 °F 55.0 °F 81% 30.17 in 10.0 mi Calm Calm - N/A   Scattered Clouds
9:54 PM 60.1 °F 55.0 °F 83% 30.17 in 10.0 mi Calm Calm - N/A   Mostly Cloudy
10:54 PM 61.0 °F 55.9 °F 83% 30.17 in 10.0 mi Calm Calm - N/A   Overcast
11:54 PM 60.1 °F 55.0 °F 83% 30.17 in 10.0 mi Calm Calm - N/A   Scattered Clouds